Caribou, ME

6:51 AM EDT on October 01, 2016 (GMT -0400)
Caribou Municipal

Weather History for KCAR - February, 2014

Change the Weather History Date:

Friday, February 28, 2014

  Actual Average Record
Temperature  
Mean Temperature 4 °F 18 °F  
Max Temperature 16 °F 28 °F 45 °F (1966)
Min Temperature -8 °F 8 °F -16 °F (1940)
Degree Days  
Heating Degree Days 61 47  
Month to date heating degree days 1457 1426  
Since 1 July heating degree days 6654 6721  
Cooling Degree Days 0 0  
Month to date cooling degree days 0 0  
Year to date cooling degree days 0 0  
Moisture  
Dew Point -3 °F    
Average Humidity 61    
Maximum Humidity 86    
Minimum Humidity 36    
Precipitation  
Precipitation T in 0.08 in 1.50 in (2013)
Month to date precipitation 2.23 2.21  
Year to date precipitation 6.22 4.92  
Snow  
Snow 0.10 in 0.80 in 13.60 in (2013)
Month to date snowfall 27.3 22.2  
Since 1 July snowfall 99.4 82.5  
Snow Depth 21.00 in    
Sea Level Pressure  
Sea Level Pressure 30.04 in    
Wind  
Wind Speed 8 mph (WNW)    
Max Wind Speed 22 mph    
Max Gust Speed 30 mph    
Visibility 8 miles    
Events Snow    
T = Trace of Precipitation, MM = Missing Value Source: NWS Daily Summary

Daily Weather History Graph

Daily Weather History Graph

Search for Another Location

Airport or City:

Trip Planner

Search our weather history database for the weather conditions in past years. The results will help you decide how hot, cold, wet, or windy it might be!

Date:

Astronomy

Feb. 28, 2014 Rise Set
Actual Time 6:13 AM EST 5:16 PM EST
Civil Twilight 5:43 AM EST 5:46 PM EST
Nautical Twilight 5:08 AM EST 6:21 PM EST
Astronomical Twilight 4:32 AM EST 6:57 PM EST
Moon 5:26 AM EST (2/28) 4:49 PM EST (2/28)
Length of Visible Light 12h 03m
Length of Day
11h 02m
Waning Crescent, 1% of the Moon is Illuminated
Feb 28
Waning Crescent
Mar 1
New
Mar 8
First Quarter
Mar 16
Full
Mar 23
Last Quarter

Hourly Weather History & Observations

Time (EST) Temp. Windchill Dew Point Humidity Pressure Visibility Wind Dir Wind Speed Gust Speed Precip Events Conditions
12:54 AM -2.9 °F - -9.0 °F 75% 29.69 in 9.0 mi Calm Calm - N/A   Mostly Cloudy
1:54 AM -6.0 °F -14.7 °F -11.0 °F 79% 29.70 in 10.0 mi SSW 3.5 mph - N/A   Mostly Cloudy
2:54 AM -8.0 °F -19.2 °F -13.0 °F 79% 29.72 in 10.0 mi SW 4.6 mph - N/A   Scattered Clouds
3:54 AM -6.0 °F -18.6 °F -11.0 °F 79% 29.75 in 10.0 mi WSW 5.8 mph - N/A   Scattered Clouds
4:14 AM -5.1 °F -17.6 °F -11.0 °F 76% 29.70 in 8.0 mi WSW 5.8 mph - N/A   Mostly Cloudy
4:24 AM -4.0 °F -17.8 °F -9.0 °F 79% 29.71 in 10.0 mi WSW 6.9 mph - N/A   Scattered Clouds
4:54 AM -2.9 °F -16.5 °F -8.0 °F 79% 29.78 in 10.0 mi WSW 6.9 mph - N/A   Clear
5:54 AM -2.9 °F -15.0 °F -8.0 °F 79% 29.82 in 10.0 mi WSW 5.8 mph - N/A   Clear
6:43 AM -0.0 °F -11.6 °F -5.1 °F 79% 29.79 in 10.0 mi WSW 5.8 mph - N/A   Mostly Cloudy
6:54 AM -0.0 °F -13.0 °F -5.1 °F 79% 29.86 in 1.8 mi WSW 6.9 mph - 0.00 in Snow Light Snow
7:03 AM -0.9 °F -14.1 °F -5.1 °F 83% 29.80 in 3.0 mi WSW 6.9 mph - 0.00 in Snow Light Snow
7:14 AM -0.0 °F -13.0 °F -4.0 °F 83% 29.81 in 10.0 mi WSW 6.9 mph - 0.00 in   Scattered Clouds
7:35 AM 1.9 °F -11.8 °F -2.0 °F 83% 29.83 in 10.0 mi WSW 8.1 mph - 0.00 in   Mostly Cloudy
7:49 AM 3.2 °F -10.3 °F -0.4 °F 85% 29.83 in 10.0 mi West 8.1 mph - 0.00 in   Scattered Clouds
7:54 AM 6.1 °F -6.8 °F 1.0 °F 80% 29.89 in 10.0 mi West 8.1 mph - 0.00 in   Scattered Clouds
8:54 AM 10.0 °F -3.7 °F 3.0 °F 73% 29.92 in 10.0 mi WNW 10.4 mph - N/A   Partly Cloudy
9:11 AM 10.9 °F -4.7 °F 1.0 °F 64% 29.88 in 10.0 mi WNW 13.8 mph 25.3 mph N/A   Mostly Cloudy
9:26 AM 12.0 °F -6.5 °F -0.0 °F 59% 29.89 in 9.0 mi NW 20.7 mph 28.8 mph N/A   Mostly Cloudy
9:54 AM 12.0 °F -3.4 °F -0.0 °F 59% 29.97 in 9.0 mi WNW 13.8 mph 26.5 mph N/A   Mostly Cloudy
10:52 AM 12.2 °F -3.7 °F 3.2 °F 67% 29.95 in 2.0 mi NW 15.0 mph 25.3 mph 0.00 in Snow Light Snow
10:54 AM 12.0 °F -2.7 °F 1.9 °F 64% 30.01 in 2.5 mi NW 12.7 mph 25.3 mph 0.00 in Snow Light Snow
11:02 AM 12.9 °F -2.2 °F -0.0 °F 56% 29.95 in 9.0 mi WNW 13.8 mph 21.9 mph 0.00 in   Overcast
11:54 AM 14.0 °F -2.0 °F -2.9 °F 47% 30.04 in 10.0 mi NW 16.1 mph 25.3 mph 0.00 in   Scattered Clouds
12:54 PM 16.0 °F 2.3 °F -7.1 °F 36% 30.06 in 10.0 mi NW 12.7 mph 19.6 mph N/A   Scattered Clouds
1:54 PM 16.0 °F 3.6 °F -5.1 °F 39% 30.10 in 10.0 mi West 10.4 mph 20.7 mph N/A   Overcast
2:54 PM 15.1 °F 1.8 °F -5.1 °F 41% 30.13 in 10.0 mi NW 11.5 mph 20.7 mph N/A   Mostly Cloudy
3:54 PM 14.0 °F 0.5 °F -4.0 °F 45% 30.17 in 10.0 mi West 11.5 mph 17.3 mph N/A   Overcast
4:54 PM 12.0 °F -2.0 °F -0.9 °F 56% 30.20 in 9.0 mi WNW 11.5 mph - N/A   Mostly Cloudy
5:51 PM 10.4 °F -2.4 °F 1.4 °F 67% 30.17 in 7.0 mi NW 9.2 mph - 0.00 in Snow Light Snow
5:54 PM 10.0 °F -2.9 °F 1.9 °F 70% 30.23 in 8.0 mi NW 9.2 mph - 0.00 in Snow Light Snow
6:03 PM 10.0 °F -0.9 °F 1.9 °F 70% 30.18 in 10.0 mi NW 6.9 mph - 0.00 in   Mostly Cloudy
6:54 PM 8.1 °F -5.3 °F 1.9 °F 76% 30.27 in 5.0 mi NNW 9.2 mph - 0.00 in Snow Light Snow
6:56 PM 8.1 °F -7.7 °F 1.9 °F 76% 30.21 in 2.5 mi NW 12.7 mph 19.6 mph 0.00 in Snow Light Snow
7:00 PM 8.1 °F -7.7 °F 1.9 °F 76% 30.21 in 1.2 mi NW 12.7 mph 20.7 mph 0.00 in Snow Light Snow
7:18 PM 8.1 °F -7.0 °F 3.0 °F 80% 30.22 in 1.8 mi WNW 11.5 mph - 0.00 in Snow Light Snow
7:25 PM 8.1 °F -7.7 °F 3.0 °F 80% 30.22 in 3.0 mi NW 12.7 mph - 0.00 in Snow Light Snow
7:54 PM 8.1 °F -4.3 °F 1.9 °F 76% 30.30 in 10.0 mi WNW 8.1 mph - 0.00 in   Overcast
8:02 PM 7.0 °F -3.3 °F 1.9 °F 80% 30.25 in 10.0 mi WNW 5.8 mph - N/A   Overcast
8:19 PM 7.0 °F -4.5 °F 1.9 °F 80% 30.26 in 3.0 mi WNW 6.9 mph - 0.00 in Snow Light Snow
8:35 PM 7.0 °F -5.7 °F 1.0 °F 77% 30.26 in 2.0 mi NW 8.1 mph - 0.00 in Snow Light Snow
8:49 PM 6.8 °F -6.9 °F -0.4 °F 72% 30.27 in 1.8 mi North 9.2 mph - 0.00 in Snow Light Snow
8:54 PM 5.0 °F -9.1 °F -2.0 °F 73% 30.34 in 2.5 mi NNW 9.2 mph - 0.00 in Snow Light Snow
9:01 PM 5.0 °F -10.0 °F -2.0 °F 73% 30.28 in 4.0 mi NNW 10.4 mph - 0.00 in Snow Light Snow
9:54 PM 3.0 °F -9.3 °F -8.0 °F 60% 30.37 in 10.0 mi NW 6.9 mph - 0.00 in   Mostly Cloudy
10:04 PM 3.0 °F -10.5 °F -9.9 °F 55% 30.31 in 10.0 mi NW 8.1 mph - N/A   Scattered Clouds
10:54 PM -0.0 °F -7.9 °F -11.9 °F 57% 30.38 in 10.0 mi WNW 3.5 mph - N/A   Clear
11:54 PM -0.0 °F - -11.0 °F 60% 30.40 in 10.0 mi Calm Calm - N/A   Clear